Location: Arnolds Mill
(42.3415°N, 73.5951°W)
Time: 10:00:08
(UTC+00:00)

BlueWalker 3 - Pass Details

Date: 26 June 2024
Orbit: 480 x 492 km, 53.2° (Epoch: 13 July)

Event Time Altitude Azimuth Distance (km) Brightness Sun altitude
Rises 01:06:28 0° 270° (W) 2,540 6.4 -5.5°
Reaches altitude 10° 01:08:57 10° 285° (WNW) 1,660 5.8 -5.8°
Maximum altitude 01:12:01 23° 340° (NNW) 1,057 4.5 -6.3°
Drops below altitude 10° 01:15:05 10° 35° (NE) 1,660 4.7 -6.7°
Sets 01:17:34 0° 50° (NE) 2,540 5.4 -7.1°
